CAPE
0 0 0 0 0 0 0 0 0 0 0 1 0 0 0 2 3 3 55 264 71 155 390 114 261 485 264 778 928 1132 1012 662 931 478 1344 1161 1068 1236 1306 998 627 509 167 282 283 381 350 362 206 218 119 112 142 115 371 522 332 419 426 696 914 735 724 1054 1284 1253 1019 1201 1110 1222 797 844 1140 1296 2112 2011 1891 1829 1829 2140 2607 2775 2814 3522 3596 3871
0 0 0 0 0 0 0 0 0 0 0 0 9 2 0 0 2 17 11 100 94 314 287 341 273 195 366 702 916 1085 1100 638 957 995 1176 1116 925 1061 1142 1218 814 584 305 274 284 451 301 386 180 272 236 256 164 227 530 644 339 508 379 751 1052 846 1011 1193 1134 903 990 1095 974 1044 901 853 726 1274 1414 1686 1878 1755 1852 2411 2612 2666 2821 3270 3924 3736
0 0 0 0 0 0 0 0 0 0 0 0 0 0 0 0 6 0 0 0 75 35 113 460 202 54 376 693 704 829 878 1099 728 1250 969 1222 1108 1482 958 1076 935 567 625 476 325 411 432 327 169 392 319 320 243 383 468 740 470 406 432 815 812 849 1146 1244 933 774 1082 1135 806 844 857 603 774 773 1042 1239 1651 1772 1812 1738 1997 2660 3176 3017 3466 3709
0 0 0 0 0 0 0 0 0 0 0 0 0 1 3 6 0 0 0 0 0 0 0 0 3 23 35 131 434 690 50 172 780 1029 1126 1273 1387 1135 1254 1263 767 981 901 784 720 446 343 302 248 417 489 469 470 396 486 623 602 244 654 967 1042 1056 1128 1295 1027 1103 982 949 1079 989 812 812 952 835 829 1313 1586 1758 1854 1381 1408 1996 2552 2871 2826 2829
0 0 0 0 0 0 0 0 0 0 0 0 0 0 2 0 1 0 0 0 0 0 0 0 0 0 11 151 339 8 0 0 123 11 754 799 1717 1530 1511 1169 1009 1235 656 1080 969 530 450 344 339 459 524 497 664 662 627 520 462 214 426 1032 1187 1280 1004 1046 1270 1455 1110 1173 1470 1228 1093 1076 1776 1263 882 1519 1710 1821 1763 1450 1298 1678 2348 2136 2877 2565
0 0 0 0 0 0 0 0 0 0 0 0 0 0 0 0 4 1 0 0 0 0 0 0 2 12 10 8 2 7 3 29 51 306 439 1032 1779 1668 1485 1711 1630 1411 1235 1420 1172 758 517 474 448 496 543 537 494 699 881 580 453 309 321 999 1465 1373 1083 1111 1597 1739 1494 1716 1947 1653 1666 1328 1659 1831 1494 1446 1439 1180 1372 1213 1236 1832 1485 2142 2532 2898
0 0 0 0 0 0 0 0 0 0 0 0 0 0 0 4 5 1 0 0 0 0 0 0 0 20 27 59 121 51 108 46 47 526 688 1697 1528 1150 1301 1290 1933 1871 1819 1718 1083 742 532 538 541 461 749 560 740 1107 962 700 472 398 380 940 1438 1484 1407 1180 1810 1905 1770 2173 1955 1672 1543 1436 1346 1511 1492 1285 920 963 958 1052 1480 1914 1710 2369 2389 2704
0 0 0 0 0 0 0 0 0 0 0 0 0 0 0 0 2 4 0 0 0 0 0 0 0 25 315 188 213 537 117 62 186 725 708 1234 1337 1523 1489 1452 1532 1689 1510 1648 1649 1066 642 629 663 908 843 890 981 834 840 654 612 520 625 1055 1496 1631 1388 1296 1955 2002 1935 2196 1876 1571 1410 1038 1312 900 1129 1270 918 922 1549 1396 1580 2052 2300 2316 2466 2506
0 0 0 0 0 0 0 0 0 0 0 0 0 0 0 0 0 3 0 0 0 2 5 0 0 0 15 135 522 791 476 418 712 256 1030 469 1031 321 1252 1201 1481 1520 1564 1378 1503 1912 842 393 674 1064 1204 930 1068 1075 1038 609 448 512 896 1314 1540 1539 1656 1548 2004 2081 1960 2036 1813 1673 1527 1407 1302 934 921 1379 904 1075 2120 1766 1874 2206 2363 2530 1951 3495
0 0 0 0 0 0 0 0 0 0 0 0 0 0 0 0 0 0 0 0 0 2 31 7 0 0 408 408 188 430 165 450 430 566 679 869 435 816 1012 1416 1797 1786 1825 1485 1453 1522 1468 910 810 905 1132 950 623 1103 1219 1251 1335 1028 1186 1752 1663 1685 1618 1641 2222 2358 2080 1826 1965 1845 1415 1550 1524 1604 2044 1982 1308 1406 2697 2526 2256 2501 2958 2407 2306 2971
0 0 0 0 0 0 0 0 0 0 0 4 0 0 0 0 0 0 0 0 4 6 7 1 0 48 87 130 480 329 226 324 121 312 206 166 402 1264 946 1382 1749 1589 1223 1440 1616 1543 1568 1263 1041 992 914 611 1049 827 805 1139 1515 1680 1479 2222 2148 2024 1756 1724 2315 2459 2292 2003 2088 1878 1677 1728 1853 2051 2313 2455 1712 1610 2524 2376 2124 2642 2636 2591 2308 2387
0 0 0 0 0 0 0 0 0 0 0 0 0 0 0 0 0 0 0 0 0 0 0 0 0 4 28 348 451 167 55 117 198 217 218 221 269 562 1437 1504 692 1138 985 715 1120 1554 1444 1387 1544 1028 804 976 1025 1289 1039 1064 1315 1832 2095 2387 2745 2517 2380 2237 2569 2551 2382 1946 2090 2024 1823 1781 1830 2204 2583 2828 2140 1805 2278 2277 1949 2510 2592 2302 2556 2542
0 0 0 0 0 0 0 0 0 0 0 0 0 0 0 0 0 0 0 0 0 0 0 0 0 1 58 179 145 159 159 10 136 145 78 110 204 593 626 948 1089 951 1138 1618 1938 1955 1140 1880 1475 1366 1269 1322 973 1271 1390 1296 1346 2103 2159 2416 2791 2765 2556 2518 2540 2637 2264 2114 2100 2001 1979 2085 1988 2107 2403 2786 2230 2106 2067 1855 1705 1979 2537 2389 2778 2160
0 0 0 0 0 0 0 0 0 0 0 0 0 0 0 0 0 0 0 0 0 0 0 0 0 125 142 203 172 85 31 63 23 81 82 109 314 404 886 1035 1174 1236 1224 1565 1709 1840 1544 1545 1618 1801 1314 1546 1624 1475 992 934 1160 1445 2455 3197 3194 3086 2782 2787 2694 2630 2462 2224 2084 2039 2091 2111 2007 1936 2246 2760 2100 1902 1749 1700 1840 1704 1769 2326 2236 2261
0 0 0 0 0 0 0 0 0 0 0 0 0 0 0 0 0 0 0 0 0 0 0 0 4 357 136 183 78 4 30 76 24 76 130 186 160 536 656 1064 989 1188 863 1068 1501 1625 1566 1487 1602 1204 1731 1867 2006 1695 1616 1088 1316 1677 2141 2572 3645 3702 3290 3082 2819 2806 2644 2507 2444 2350 2099 2137 2099 2013 2117 2181 1963 1853 1635 1363 1550 1705 1699 1515 1762 2036
0 0 0 0 0 0 0 0 1 0 0 0 0 0 0 0 0 0 0 0 0 0 0 0 143 54 271 79 39 116 55 51 45 30 70 94 118 238 336 562 553 897 1487 721 1154 1469 1478 1375 1427 1587 1590 1868 2252 2093 1836 1413 1538 1697 2178 2915 3029 3205 3333 3370 3293 3203 2911 2658 2505 2544 2409 2122 2091 2024 1860 2038 1998 1873 1586 1634 1402 1661 1716 1348 1706 1815
18 0 0 0 0 0 0 0 0 0 1 0 0 0 0 0 0 2 5 0 0 0 0 0 118 353 58 267 105 125 58 51 45 45 48 47 47 131 156 305 274 388 900 585 542 984 1532 1540 1754 1849 1662 1767 1712 1845 1700 1759 1884 2160 1961 2620 2654 2778 3576 3683 3692 3164 3461 3106 2820 2901 2812 2280 2005 1982 1834 1673 1955 1506 1637 1747 1636 1520 1537 1507 1652 2040
5 6 0 0 0 0 0 0 0 0 0 0 0 0 0 0 1 8 6 24 1 0 0 0 87 282 260 371 300 203 200 80 26 52 57 57 47 49 75 189 150 258 353 465 653 1018 1168 1325 1262 1299 1436 1925 1591 1878 1870 2636 2458 2263 2094 2536 3013 3271 3824 3730 3761 3377 3159 3513 3208 3160 3166 2719 2159 1808 1590 1152 1329 1417 1409 1662 1749 1349 1450 1371 1225 1508
2 0 0 0 0 0 0 0 0 0 0 0 0 0 0 1 0 0 0 29 4 0 1 5 17 67 203 518 310 337 110 21 54 50 54 32 47 80 53 130 193 205 492 606 832 1148 771 845 1678 1406 1924 1504 1602 1759 1611 2046 1642 1529 1938 1976 2072 2773 2444 3094 3144 2890 3140 3701 3468 3212 3322 3069 2461 1866 1636 1158 1028 1337 1188 1228 1509 1408 1168 1265 1239 1234
0 3 0 0 0 0 0 0 0 0 0 0 0 0 0 0 0 2 0 0 2 8 0 19 2 190 201 378 412 122 15 12 64 56 50 62 56 64 57 131 619 613 420 383 458 701 734 905 1434 2173 2117 2176 2017 1195 1019 1901 1650 1505 1622 1472 1737 1899 2096 2266 2265 2918 2590 2845 2698 2703 3368 3376 2932 2336 1700 1314 1036 1035 1166 1202 1211 1305 966 1142 1151 1155
0 0 2 0 0 0 0 0 0 0 0 0 0 0 0 0 12 0 0 0 0 0 0 2 32 337 572 304 235 109 3 14 78 51 58 51 52 87 235 260 174 596 786 652 316 437 558 604 837 1648 1834 1633 1904 1586 1369 1350 1716 1636 1613 2108 2068 1744 1870 1954 2444 2647 3013 2630 2604 2802 3019 3201 3317 2690 1812 1478 1250 1047 1121 1218 1242 1122 912 1007 1176 1201
2 0 1 0 0 0 0 0 0 0 0 0 0 0 0 0 0 0 4 0 0 0 0 15 84 700 304 318 73 0 6 28 26 57 46 46 35 41 144 170 233 317 121 570 526 389 476 508 533 825 1642 1550 1456 1665 1981 1978 2256 1423 1165 1167 1457 1644 1963 1620 2615 2407 3197 3204 3075 2911 2682 2884 3204 3172 2332 1498 1204 1255 1006 1169 1207 1160 1032 812 994 1212
0 0 34 0 0 0 0 0 0 0 0 0 0 0 0 0 0 4 3 2 0 0 10 234 373 276 147 142 22 4 18 42 38 42 29 30 50 44 138 242 337 476 514 189 85 150 314 528 605 771 868 909 889 992 1981 1780 1100 1120 1513 1693 1356 1309 1583 1570 1711 1553 1608 2083 3008 3155 2672 2682 2876 2800 2391 1638 1072 1068 821 968 1198 1156 1208 871 738 1123
0 0 0 9 0 0 0 0 0 0 0 0 0 0 0 0 0 0 0 5 0 0 0 80 297 110 94 17 2 8 20 14 24 52 39 31 32 96 436 459 422 388 552 514 528 245 192 532 810 866 971 1037 1075 961 927 1440 1368 1823 1704 1712 1892 1795 1793 1506 1050 1500 2100 2293 2355 2684 2382 2283 2665 2064 2315 1572 1066 787 755 492 739 1117 1164 1042 540 698
0 0 0 0 0 0 0 0 0 0 0 0 0 0 0 0 0 3 9 3 0 0 0 1 189 267 65 27 6 10 18 20 15 30 52 49 29 146 200 344 394 454 440 592 740 525 518 600 664 796 914 986 970 797 895 882 1064 1066 1579 1524 1271 1018 1178 1212 1464 1441 1310 1611 1879 2151 2095 2175 2659 2320 2179 2011 860 870 780 460 346 603 882 816 409 215
10 58 11 2 2 0 0 0 0 0 0 0 0 0 0 0 0 0 0 0 0 0 82 76 488 213 113 41 29 32 3 9 1 10 42 90 157 106 164 232 344 377 518 589 643 660 667 609 709 739 794 838 871 841 844 848 889 704 893 896 1364 1780 961 1389 1047 1170 1469 1365 1524 1928 1597 1610 2026 2288 1598 1388 897 964 708 540 286 288 632 720 382 267
0 0 80 18 6 4 156 32 0 0 0 0 0 0 0 0 0 0 0 1 2 1 26 425 255 64 50 21 43 31 7 9 5 10 1 11 106 144 136 148 160 177 195 342 394 616 668 702 713 740 790 770 832 850 820 845 768 727 771 794 990 1172 946 1278 1374 1082 1260 1703 1597 1546 1412 1150 1752 2201 2063 1897 1600 1150 981 652 440 230 309 510 496 279
0 1 0 0 0 0 0 0 0 0 0 0 0 0 0 0 0 0 0 0 199 0 7 284 408 172 127 44 15 15 14 3 4 5 2 1 1 0 105 132 158 175 246 241 223 374 499 732 762 719 832 818 795 848 898 873 818 772 679 695 721 699 769 809 868 966 981 1296 1165 1288 1166 1713 1744 2263 2354 2160 2170 1732 1556 959 617 423 296 389 390 284
5 0 0 0 0 0 0 0 0 0 0 0 0 0 0 0 0 0 0 0 0 12 138 361 280 265 160 114 43 16 28 6 1 5 5 0 0 0 0 47 103 146 210 357 362 462 550 509 681 798 813 796 842 856 846 834 813 790 770 706 708 665 710 716 765 922 1000 1050 955 1386 1665 1974 2297 2318 2273 2062 2349 2398 2063 1715 975 762 755 580 466 314
0 0 0 0 0 0 0 0 0 0 0 0 0 0 0 0 0 0 0 0 0 10 252 338 510 359 233 77 20 10 12 2 4 4 0 0 0 0 0 0 40 116 171 273 356 369 421 447 392 384 662 824 886 868 856 865 865 857 813 801 742 710 739 727 704 684 825 1101 980 1049 1524 1882 2207 2641 2161 2233 2771 2832 2426 2070 1890 1168 981 798 588 752
0 0 0 0 0 0 0 0 0 0 0 0 0 0 0 0 0 0 0 0 31 215 249 134 493 321 185 71 4 1 0 2 4 1 3 0 0 0 0 0 28 116 96 108 162 247 242 317 439 444 419 474 629 839 868 840 841 859 889 841 759 725 756 749 738 706 632 706 1052 961 1082 1597 1806 2131 2376 2583 2611 2976 2867 2629 2312 1910 2300 1684 1168 1296
0 4 0 0 0 0 0 0 0 0 0 0 0 0 0 0 0 0 0 0 0 122 255 268 308 233 96 7 4 4 2 5 4 3 0 0 0 0 0 0 0 12 87 98 122 129 148 191 374 423 490 407 414 389 474 599 675 779 874 913 868 836 817 789 755 741 807 1061 1286 1623 1627 1819 1673 2032 2336 2715 2569 2867 2830 2461 2735 2608 2122 1848 1490 2008
0 0 0 0 0 0 0 0 0 0 0 0 0 0 0 0 0 0 0 0 0 118 191 135 115 78 12 4 3 3 1 5 3 0 0 0 0 0 0 0 0 0 0 0 0 85 117 127 155 245 302 498 536 538 498 518 553 514 638 749 827 875 895 776 752 736 745 829 1395 1388 1310 1518 1741 1803 1869 2578 2731 3079 2284 1915 1962 1843 1756 1877 1988 1600
0 0 0 0 1 0 0 0 0 0 2 9 20 0 0 0 0 0 0 0 0 0 78 75 98 0 4 2 2 5 9 1 0 1 1 0 0 0 0 0 0 0 0 0 0 0 27 86 122 160 225 238 331 509 597 646 572 519 478 445 563 726 756 850 831 768 766 778 732 729 857 1125 1166 1336 1521 2034 2194 2065 1913 1832 1993 2202 1727 1367 1911 2320
0 0 0 0 0 2 0 0 0 1 27 51 0 0 0 0 0 0 0 0 26 73 162 104 41 0 2 3 2 10 2 10 0 0 0 0 0 0 0 0 0 0 0 0 0 0 0 82 108 132 144 180 220 245 254 351 450 516 554 570 568 535 604 720 830 819 772 753 745 680 644 497 579 932 1224 1311 1874 1426 1357 1494 1717 1604 1863 1980 1402 1745
10 0 0 0 0 0 0 0 0 0 43 0 0 0 0 0 0 0 0 1 64 145 218 99 47 0 0 2 6 0 0 1 0 2 0 0 0 0 0 0 0 0 0 0 0 0 0 0 0 24 96 96 120 148 155 179 197 258 360 483 569 619 566 556 578 691 641 693 739 726 668 548 575 610 711 1205 1313 1447 1780 1804 1833 1742 1880 1586 2148 1614
0 0 2 0 0 0 0 0 0 66 8 0 0 0 0 0 0 0 1 0 31 71 102 40 0 0 0 1 0 0 0 2 0 0 0 0 0 0 0 0 0 0 0 0 0 0 0 0 0 0 0 0 0 81 104 113 133 140 159 192 268 366 480 539 549 521 579 604 554 654 643 636 550 561 572 670 753 1078 1265 1329 1885 1924 1911 1733 1730 1792
0 0 55 26 5 0 0 0 3 2 0 0 0 0 0 0 0 0 65 5 7 4 12 4 1 0 0 0 0 0 0 0 0 0 0 0 0 0 0 0 0 0 0 0 0 0 0 0 0 0 0 0 0 0 0 0 9 77 90 106 136 160 152 185 247 374 421 322 354 561 566 648 528 522 568 598 588 852 1123 1159 1428 1826 2175 2195 2279 2091
0 0 0 0 0 0 0 0 3 0 41 53 3 1 0 0 0 0 27 22 0 0 0 0 0 0 0 0 0 0 0 0 0 1 0 0 0 0 0 0 0 0 0 0 0 0 0 0 0 0 0 0 0 0 0 0 0 0 0 0 0 50 120 133 124 73 0 146 103 382 446 514 529 512 542 602 567 673 868 921 1167 1498 1674 1974 2084 1796
6 0 0 0 0 0 0 0 0 0 212 108 17 0 0 0 0 0 1 0 0 0 0 0 0 0 0 0 0 0 0 0 12 0 0 0 0 0 0 0 0 0 0 0 0 0 0 0 0 0 0 0 0 0 0 0 0 0 0 0 0 0 0 0 0 0 0 0 0 9 181 267 318 344 375 447 546 861 1194 1136 956 1095 1478 1701 1925 1680
0 0 0 0 0 0 0 0 0 180 168 79 0 0 0 0 0 0 0 218 0 0 0 0 0 0 0 0 0 0 0 0 0 0 0 0 0 0 0 0 0 0 0 0 0 0 0 0 0 0 0 0 0 0 0 0 0 0 0 0 0 0 0 0 0 0 0 0 0 0 0 0 41 74 151 282 295 860 996 1536 1253 950 879 944 992 1218
0 0 0 0 0 0 0 0 0 62 139 15 0 0 0 0 0 3 56 0 0 0 0 0 0 0 0 0 0 0 0 0 0 0 0 0 0 0 0 0 0 0 0 0 0 0 0 0 0 0 0 0 0 0 0 0 0 0 0 0 0 0 0 0 0 0 0 0 0 0 0 0 0 0 0 4 99 416 849 1154 1326 1196 1047 684 1168 1404
0 0 0 0 0 0 0 3 0 0 82 0 0 0 0 0 131 27 0 0 0 0 0 0 0 0 0 0 0 0 0 0 0 0 0 0 0 0 0 0 0 0 0 0 0 0 0 0 0 0 0 0 0 0 0 0 0 0 0 0 0 0 0 0 0 0 0 0 0 0 0 0 0 0 0 0 20 82 235 497 410 1007 1016 774 1145 1445
0 0 0 0 0 0 0 0 0 4 5 21 0 10 0 0 15 7 0 0 0 0 0 0 0 0 0 0 0 0 0 0 0 0 0 0 0 0 0 0 0 0 0 0 0 0 0 0 0 0 0 0 0 0 0 0 0 0 0 0 0 0 0 0 0 0 0 0 0 0 0 0 0 0 0 0 0 1 45 122 230 676 1189 1139 1327 1388
0 2 33 173 13 0 0 56 36 2 44 16 1 4 0 43 23 0 0 0 0 0 0 0 0 0 0 0 0 0 0 0 0 0 0 0 0 0 0 0 0 0 0 0 0 0 0 0 0 0 0 0 0 0 0 0 0 0 0 0 0 0 0 0 0 0 0 0 0 0 0 0 0 0 0 0 0 0 11 57 92 277 804 1230 1282 1178
72 33 291 76 1 0 1 18 184 28 0 0 0 0 15 0 0 0 0 0 0 0 0 0 0 0 0 0 0 0 0 0 0 0 0 0 0 0 0 0 0 0 0 0 0 0 0 0 0 0 0 0 0 0 0 0 0 0 0 0 0 0 0 0 0 0 0 0 0 0 0 0 0 0 0 0 0 7 27 29 44 109 177 376 808 1002
0 32 15 0 0 0 2 14 2 2 0 0 0 0 0 0 0 0 0 0 0 0 0 0 0 0 0 0 0 0 0 0 0 0 0 0 0 0 0 0 0 0 0 0 0 0 0 0 0 0 0 0 0 0 0 0 0 0 0 0 0 0 0 0 0 0 0 0 0 0 0 0 0 0 0 0 0 0 0 2 26 131 312 463 708 764
163 10 22 0 0 0 0 66 27 12 0 0 0 3 1 0 0 0 0 0 0 0 0 0 0 0 0 0 0 0 0 0 0 0 0 0 0 0 0 0 0 0 0 0 0 0 0 0 2 0 0 0 0 0 0 0 0 0 0 0 0 0 0 0 0 0 0 0 0 0 0 0 0 0 0 0 0 0 0 0 12 67 202 465 659 888
292 57 171 222 10 0 4 3 49 97 16 10 0 0 10 28 2 0 0 0 0 0 0 0 0 0 0 0 0 0 0 0 0 0 0 0 0 0 0 0 0 0 0 0 0 0 0 0 0 2 0 0 0 0 0 0 0 0 0 0 0 0 0 0 0 0 0 0 0 0 0 0 0 0 0 0 0 0 0 2 23 25 43 69 71 169
238 161 80 55 120 201 199 236 155 63 236 56 0 0 0 0 0 2 7 2 0 0 0 0 0 0 0 0 0 0 0 0 0 0 0 0 0 0 0 0 0 0 0 0 0 0 0 0 0 0 2 4 0 0 0 0 0 0 0 0 0 0 0 0 0 0 0 0 0 0 0 0 0 0 0 0 0 0 0 0 0 47 0 0 6 0
113 375 196 218 223 161 174 150 367 52 58 49 119 61 6 2 3 7 12 4 9 3 1 0 0 0 0 0 0 0 0 0 0 0 2 0 0 0 0 0 0 0 0 0 0 0 0 0 0 0 0 0 0 0 0 0 0 0 0 0 0 0 0 0 0 0 0 0 0 0 0 0 0 0 0 0 0 0 0 0 0 0 0 0 0 0
Wind_Speed
nan nan nan nan nan nan nan nan nan nan nan nan nan nan nan nan nan nan nan 19 nan 19 20 15 15 17 9 10 14 17 19 20 9 8 13 11 12 9 9 8 6 4 4 5 4 4 3 5 2 5 4 4 4 6 8 7 8 9 9 9 8 9 10 9 8 5 4 3 2 3 2 2 2 3 5 5 5 4 5 4 4 3 4 3 4 5
nan nan nan nan nan nan nan nan nan nan nan nan nan nan nan nan nan nan nan 16 nan 18 31 21 11 15 11 11 14 19 24 18 21 16 13 12 11 13 9 9 6 6 5 5 5 4 4 3 4 5 4 4 5 6 8 6 8 9 9 9 9 9 10 9 8 6 4 3 2 3 2 2 3 4 4 5 5 4 6 5 5 3 4 3 4 4
nan nan nan nan nan nan nan nan nan nan nan nan nan nan nan nan nan nan nan nan nan nan 26 27 17 nan 16 12 13 17 13 13 13 13 10 9 16 13 13 10 12 7 6 5 5 4 4 5 6 5 5 5 5 5 6 6 7 8 9 10 10 10 10 8 8 7 5 4 3 3 3 3 4 5 5 5 5 5 5 4 3 5 5 3 3 3
nan nan nan nan nan nan nan nan nan nan nan nan nan nan nan nan nan nan nan nan nan nan nan nan nan nan nan 17 14 13 nan 15 10 12 16 13 18 13 13 12 13 9 6 6 5 5 6 6 6 6 5 5 6 5 5 5 6 7 10 11 10 10 9 9 9 6 6 5 5 5 5 5 7 6 5 6 5 4 4 4 4 5 4 3 3 3
nan nan nan nan nan nan nan nan nan nan nan nan nan nan nan nan nan nan nan nan nan nan nan nan nan nan nan 17 14 nan nan nan 18 nan 14 16 16 18 16 12 8 3 8 6 7 6 7 8 9 7 7 5 5 5 5 4 6 8 8 10 9 10 8 9 9 6 7 8 8 7 8 8 10 8 6 6 5 5 5 4 4 4 3 3 4 4
nan nan nan nan nan nan nan nan nan nan nan nan nan nan nan nan nan nan nan nan nan nan nan nan nan nan nan nan nan nan nan nan nan 17 16 18 18 20 16 12 11 12 12 8 10 8 7 8 10 10 8 6 5 6 5 4 6 6 8 9 8 9 8 8 9 7 8 9 8 8 8 7 7 6 5 5 5 5 4 3 4 5 2 2 2 3
nan nan nan nan nan nan nan nan nan nan nan nan nan nan nan nan nan nan nan nan nan nan nan nan nan nan nan nan 19 nan 23 nan nan 21 16 23 19 16 15 13 12 13 11 9 11 10 9 7 9 11 9 7 6 7 6 5 6 5 7 8 7 8 8 8 9 8 9 9 8 8 8 8 6 5 5 7 6 6 5 5 5 6 3 3 2 3
nan nan nan nan nan nan nan nan nan nan nan nan nan nan nan nan nan nan nan nan nan nan nan nan nan nan 22 26 25 21 21 nan 21 23 22 19 16 16 17 16 12 13 11 12 13 9 9 8 8 9 10 7 7 7 7 6 7 6 8 8 7 9 8 8 10 9 10 9 9 8 8 8 5 4 6 7 7 8 8 6 5 7 5 4 3 4
nan nan nan nan nan nan nan nan nan nan nan nan nan nan nan nan nan nan nan nan nan nan nan nan nan nan nan 26 28 35 31 27 25 23 28 13 10 13 17 15 11 13 13 10 13 13 10 8 7 10 9 7 6 7 7 7 9 9 9 8 7 8 8 9 9 10 10 10 9 9 8 8 6 6 7 8 8 9 9 7 7 7 5 5 3 4
nan nan nan nan nan nan nan nan nan nan nan nan nan nan nan nan nan nan nan nan nan nan nan nan nan nan 29 24 24 26 26 26 25 22 30 16 14 12 15 12 14 17 15 12 9 9 11 9 9 11 10 6 5 6 7 8 10 10 10 9 8 8 9 10 10 10 10 9 9 9 7 7 6 7 9 9 9 9 9 8 7 7 6 4 3 3
nan nan nan nan nan nan nan nan nan nan nan nan nan nan nan nan nan nan nan nan nan nan nan nan nan nan nan 23 24 18 29 28 28 27 29 25 23 21 17 11 15 16 12 12 13 12 11 10 6 13 11 8 5 10 6 5 9 11 11 11 9 9 10 10 11 11 10 9 9 8 7 5 6 7 9 10 9 9 9 8 6 6 5 4 3 3
nan nan nan nan nan nan nan nan nan nan nan nan nan nan nan nan nan nan nan nan nan nan nan nan nan nan nan 27 29 31 nan 30 32 31 30 30 28 23 24 25 18 18 11 10 9 7 13 9 9 13 11 9 7 14 9 4 11 9 11 12 10 10 10 11 11 11 11 11 9 7 6 5 5 8 10 10 9 8 7 7 6 6 5 3 3 3
nan nan nan nan nan nan nan nan nan nan nan nan nan nan nan nan nan nan nan nan nan nan nan nan nan nan nan 39 37 32 31 nan 33 35 nan 30 28 25 30 24 24 28 22 11 16 10 17 9 14 13 10 13 9 10 9 11 10 13 11 11 11 10 10 12 12 11 12 11 10 7 5 5 6 8 10 10 8 8 8 8 7 6 5 3 2 3
nan nan nan nan nan nan nan nan nan nan nan nan nan nan nan nan nan nan nan nan nan nan nan nan nan 22 40 41 39 nan nan nan nan nan nan 30 30 30 34 29 26 23 20 17 17 14 16 13 14 13 15 12 11 9 10 10 9 14 12 12 11 11 11 12 12 12 12 12 10 7 6 6 8 9 10 10 9 8 9 9 8 5 4 3 2 2
nan nan nan nan nan nan nan nan nan nan nan nan nan nan nan nan nan nan nan nan nan nan nan nan nan 33 33 37 nan nan nan nan nan nan 32 30 32 35 36 32 27 24 22 21 15 16 16 16 15 15 15 16 13 11 9 12 13 17 12 13 12 12 11 11 12 13 12 13 11 8 7 7 9 11 11 10 10 9 8 9 8 7 5 4 3 3
nan nan nan nan nan nan nan nan nan nan nan nan nan nan nan nan nan nan nan nan nan nan nan nan 30 nan 41 nan nan 37 nan nan nan nan nan nan 38 37 33 30 30 30 24 22 20 19 17 15 15 17 18 17 16 13 12 13 14 16 14 16 14 12 11 11 12 13 13 13 12 9 8 8 10 12 12 12 11 10 10 10 10 8 8 7 5 5
nan nan nan nan nan nan nan nan nan nan nan nan nan nan nan nan nan nan nan nan nan nan nan nan 48 46 nan 36 42 40 nan nan nan nan nan nan nan 37 34 32 29 29 27 23 20 20 22 19 16 18 17 18 18 15 12 13 15 14 18 19 17 13 12 13 12 12 13 12 12 10 8 9 10 10 10 10 9 8 10 11 11 10 8 8 9 7
nan nan nan nan nan nan nan nan nan nan nan nan nan nan nan nan nan nan nan nan nan nan nan nan nan 42 34 37 36 39 43 nan nan nan nan nan nan nan nan 33 30 28 27 26 28 24 23 21 16 13 10 14 17 16 12 18 19 19 20 20 19 16 14 15 14 13 12 12 13 11 9 10 10 11 10 10 9 8 10 10 11 11 10 9 8 9
nan nan nan nan nan nan nan nan nan nan nan nan nan nan nan nan nan nan nan nan nan nan nan nan nan nan 31 40 35 39 45 nan nan nan nan nan nan nan nan 34 33 30 28 27 32 33 29 22 21 19 19 15 17 25 21 21 18 19 18 24 19 18 17 14 13 11 15 13 14 14 11 10 11 11 11 10 9 9 9 9 10 10 11 10 9 10
nan nan nan nan nan nan nan nan nan nan nan nan nan nan nan nan nan nan nan nan nan nan nan nan nan 31 37 40 40 46 nan nan nan nan nan nan nan nan nan 37 37 36 34 31 34 33 32 27 24 24 25 21 28 30 26 26 24 23 22 22 20 18 17 12 8 9 8 9 11 13 13 12 12 12 12 11 10 9 8 8 9 10 10 10 10 9
nan nan nan nan nan nan nan nan nan nan nan nan nan nan nan nan nan nan nan nan nan nan nan nan nan 34 40 46 47 47 nan nan nan nan nan nan nan nan 42 41 39 39 37 38 36 35 34 36 31 24 25 26 25 21 20 23 24 26 23 18 14 13 10 10 10 10 10 11 11 13 13 13 13 12 13 13 12 10 10 9 9 10 10 11 11 10
nan nan nan nan nan nan nan nan nan nan nan nan nan nan nan nan nan nan nan nan nan nan nan nan nan 40 37 39 nan nan nan nan nan nan nan nan nan nan 43 44 42 39 39 39 37 36 36 35 36 35 28 24 21 19 17 20 28 23 16 15 11 13 11 11 14 12 15 14 16 14 13 13 14 13 14 13 14 12 12 10 10 11 11 11 12 11
nan nan nan nan nan nan nan nan nan nan nan nan nan nan nan nan nan nan nan nan nan nan nan 34 41 39 37 37 nan nan nan nan nan nan nan nan nan nan 45 44 43 43 41 39 nan 37 36 35 35 36 38 39 39 33 21 17 19 19 13 11 14 16 11 13 16 12 15 14 17 15 15 14 14 13 12 13 13 13 13 13 12 11 11 12 13 12
nan nan nan nan nan nan nan nan nan nan nan nan nan nan nan nan nan nan nan nan nan nan nan nan 36 37 nan nan nan nan nan nan nan nan nan nan nan nan 47 46 45 45 43 42 40 39 40 40 39 38 38 38 39 38 34 22 19 22 23 21 24 22 17 15 15 17 17 15 14 14 15 12 13 13 12 12 12 12 12 14 15 13 11 12 13 14
nan nan nan nan nan nan nan nan nan nan nan nan nan nan nan nan nan nan nan nan nan nan nan nan 33 33 nan nan nan nan nan nan nan nan nan nan nan 48 47 46 45 45 45 45 45 44 45 46 46 41 38 37 38 39 34 25 20 23 26 16 16 18 17 16 16 15 15 13 11 11 12 12 13 13 14 12 12 12 12 12 15 16 13 13 13 13
nan nan nan nan nan nan nan nan nan nan nan nan nan nan nan nan nan nan nan nan nan nan nan nan 46 43 36 nan nan nan nan nan nan nan nan nan 49 50 49 48 46 46 47 47 46 47 47 47 45 44 42 38 38 37 35 31 29 31 28 25 22 19 19 15 14 18 17 12 11 12 11 12 13 13 13 13 11 12 12 12 13 17 17 14 13 13
nan nan nan nan nan nan 38 nan nan nan nan nan nan nan nan nan nan nan nan nan nan nan nan 46 44 nan nan nan nan nan nan nan nan nan nan nan 48 51 52 50 50 48 49 50 49 46 46 47 47 44 42 41 40 38 34 33 34 35 34 33 27 22 20 16 19 18 15 13 13 13 11 11 13 14 15 14 12 11 13 12 13 14 17 18 14 13
nan nan nan nan nan nan nan nan nan nan nan nan nan nan nan nan nan nan nan nan 46 nan nan 42 46 44 45 nan nan nan nan nan nan nan nan nan nan nan 50 51 52 52 51 51 51 51 49 48 46 44 42 43 42 41 38 36 35 36 36 34 32 28 24 26 27 23 17 17 17 16 14 15 16 17 18 17 15 12 12 13 12 13 15 19 17 14
nan nan nan nan nan nan nan nan nan nan nan nan nan nan nan nan nan nan nan nan nan nan 42 42 39 44 46 47 nan nan nan nan nan nan nan nan nan nan nan nan 54 55 54 53 52 51 51 50 49 47 45 44 44 44 43 39 38 37 36 35 33 30 29 26 23 27 24 18 17 16 18 16 16 16 17 14 14 16 15 14 13 14 15 16 16 16
nan nan nan nan nan nan nan nan nan nan nan nan nan nan nan nan nan nan nan nan nan nan 47 44 40 46 48 nan nan nan nan nan nan nan nan nan nan nan nan nan nan 56 56 55 53 52 52 52 52 50 48 48 47 47 46 43 41 39 38 37 35 31 29 25 23 22 25 27 20 19 19 19 21 22 19 16 18 20 19 17 15 14 14 13 14 17
nan nan nan nan nan nan nan nan nan nan nan nan nan nan nan nan nan nan nan nan nan 45 40 43 46 49 48 nan nan nan nan nan nan nan nan nan nan nan nan nan nan 56 nan 57 56 54 54 54 54 52 50 49 49 49 47 44 43 41 41 39 37 34 31 26 25 21 19 20 25 22 20 20 20 20 20 19 19 20 20 19 19 17 17 15 14 16
nan nan nan nan nan nan nan nan nan nan nan nan nan nan nan nan nan nan nan nan nan 38 41 47 48 49 nan nan nan nan nan nan nan nan nan nan nan nan nan nan nan nan nan nan 58 57 57 56 57 55 53 51 51 50 49 47 46 44 43 41 40 37 35 32 28 27 25 22 22 25 25 26 23 20 19 20 19 22 26 25 22 20 18 16 14 16
nan nan nan nan nan nan nan nan nan nan nan nan nan nan nan nan nan nan nan nan nan 40 39 40 44 nan nan nan nan nan nan nan nan nan nan nan nan nan nan nan nan nan nan nan nan nan 58 58 58 57 55 53 51 50 51 50 48 46 44 44 42 40 39 38 35 32 30 29 28 30 28 27 26 26 24 25 26 28 28 27 25 24 20 17 17 18
nan nan nan nan nan nan nan nan nan nan nan nan nan nan nan nan nan nan nan nan nan nan nan nan nan nan nan nan nan nan nan nan nan nan nan nan nan nan nan nan nan nan nan nan nan nan nan nan 56 57 56 54 53 52 51 52 50 48 47 46 44 44 42 41 39 37 36 34 33 31 32 34 34 28 24 27 29 29 27 26 24 26 26 27 23 20
nan nan nan nan nan nan nan nan nan nan nan nan nan nan nan nan nan nan nan nan nan nan 59 60 nan nan nan nan nan nan nan nan nan nan nan nan nan nan nan nan nan nan nan nan nan nan nan nan 56 57 57 55 54 52 52 53 52 50 50 48 48 47 45 43 42 41 41 39 36 35 34 35 36 34 33 29 31 31 27 24 25 26 27 28 29 25
nan nan nan nan nan nan nan nan nan nan nan nan nan nan nan nan nan nan nan nan nan 49 51 nan nan nan nan nan nan nan nan nan nan nan nan nan nan nan nan nan nan nan nan nan nan nan nan nan nan nan nan nan 55 54 54 55 53 52 51 50 50 50 48 46 45 44 45 44 42 41 40 38 38 37 37 38 31 29 28 27 27 29 32 31 30 30
nan nan nan nan nan nan nan nan nan nan nan nan nan nan nan nan nan nan nan nan nan nan 49 nan nan nan nan nan nan nan nan nan nan nan nan nan nan nan nan nan nan nan nan nan nan nan nan nan nan nan nan nan nan nan 56 54 53 53 52 52 52 51 50 48 47 48 48 47 43 42 41 39 39 39 39 37 34 33 31 29 30 28 28 28 25 22
nan nan nan nan nan nan nan nan nan nan nan nan nan nan nan nan nan nan nan nan nan nan nan nan nan nan nan nan nan nan nan nan nan nan nan nan nan nan nan nan nan nan nan nan nan nan nan nan nan nan nan nan nan nan nan nan nan nan nan 52 52 51 51 51 51 50 50 49 43 41 41 40 39 40 40 38 35 34 36 33 27 23 23 24 23 22
nan nan nan nan nan nan nan nan nan nan nan nan nan nan nan nan nan nan nan nan nan nan nan nan nan nan nan nan nan nan nan nan nan nan nan nan nan nan nan nan nan nan nan nan nan nan nan nan nan nan nan nan nan nan nan nan nan nan nan nan nan nan 52 52 52 nan nan 49 46 44 44 43 44 43 42 40 37 37 36 33 31 29 28 25 23 23
nan nan nan nan nan nan nan nan nan nan 34 35 nan nan nan nan nan nan nan nan nan nan nan nan nan nan nan nan nan nan nan nan nan nan nan nan nan nan nan nan nan nan nan nan nan nan nan nan nan nan nan nan nan nan nan nan nan nan nan nan nan nan nan nan nan nan nan nan nan nan 47 46 45 46 46 44 41 38 37 34 30 29 29 27 25 22
nan nan nan nan nan nan nan nan nan 35 37 nan nan nan nan nan nan nan nan 51 nan nan nan nan nan nan nan nan nan nan nan nan nan nan nan nan nan nan nan nan nan nan nan nan nan nan nan nan nan nan nan nan nan nan nan nan nan nan nan nan nan nan nan nan nan nan nan nan nan nan nan nan nan nan 44 44 43 40 36 32 30 30 30 27 25 24
nan nan nan nan nan nan nan nan nan nan 36 nan nan nan nan nan nan nan nan nan nan nan nan nan nan nan nan nan nan nan nan nan nan nan nan nan nan nan nan nan nan nan nan nan nan nan nan nan nan nan nan nan nan nan nan nan nan nan nan nan nan nan nan nan nan nan nan nan nan nan nan nan nan nan nan nan nan 38 36 32 30 30 30 29 27 25
nan nan nan nan nan nan nan nan nan nan nan nan nan nan nan nan 41 nan nan nan nan nan nan nan nan nan nan nan nan nan nan nan nan nan nan nan nan nan nan nan nan nan nan nan nan nan nan nan nan nan nan nan nan nan nan nan nan nan nan nan nan nan nan nan nan nan nan nan nan nan nan nan nan nan nan nan nan nan 36 35 33 31 28 26 26 26
nan nan nan nan nan nan nan nan nan nan nan nan nan nan nan nan nan nan nan nan nan nan nan nan nan nan nan nan nan nan nan nan nan nan nan nan nan nan nan nan nan nan nan nan nan nan nan nan nan nan nan nan nan nan nan nan nan nan nan nan nan nan nan nan nan nan nan nan nan nan nan nan nan nan nan nan nan nan nan 37 36 35 33 29 28 27
nan nan nan 23 nan nan nan nan nan nan nan nan nan nan nan nan nan nan nan nan nan nan nan nan nan nan nan nan nan nan nan nan nan nan nan nan nan nan nan nan nan nan nan nan nan nan nan nan nan nan nan nan nan nan nan nan nan nan nan nan nan nan nan nan nan nan nan nan nan nan nan nan nan nan nan nan nan nan nan nan nan 38 37 34 30 29
nan nan 30 nan nan nan nan nan 27 nan nan nan nan nan nan nan nan nan nan nan nan nan nan nan nan nan nan nan nan nan nan nan nan nan nan nan nan nan nan nan nan nan nan nan nan nan nan nan nan nan nan nan nan nan nan nan nan nan nan nan nan nan nan nan nan nan nan nan nan nan nan nan nan nan nan nan nan nan nan nan nan 41 38 35 34 33
nan nan nan nan nan nan nan nan nan nan nan nan nan nan nan nan nan nan nan nan nan nan nan nan nan nan nan nan nan nan nan nan nan nan nan nan nan nan nan nan nan nan nan nan nan nan nan nan nan nan nan nan nan nan nan nan nan nan nan nan nan nan nan nan nan nan nan nan nan nan nan nan nan nan nan nan nan nan nan nan nan 42 40 38 37 35
23 nan nan nan nan nan nan nan nan nan nan nan nan nan nan nan nan nan nan nan nan nan nan nan nan nan nan nan nan nan nan nan nan nan nan nan nan nan nan nan nan nan nan nan nan nan nan nan nan nan nan nan nan nan nan nan nan nan nan nan nan nan nan nan nan nan nan nan nan nan nan nan nan nan nan nan nan nan nan nan nan nan 43 42 41 40
35 nan 25 29 nan nan nan nan nan nan nan nan nan nan nan nan nan nan nan nan nan nan nan nan nan nan nan nan nan nan nan nan nan nan nan nan nan nan nan nan nan nan nan nan nan nan nan nan nan nan nan nan nan nan nan nan nan nan nan nan nan nan nan nan nan nan nan nan nan nan nan nan nan nan nan nan nan nan nan nan nan nan nan nan nan 45
26 22 nan nan 25 25 27 29 27 nan 25 nan nan nan nan nan nan nan nan nan nan nan nan nan nan nan nan nan nan nan nan nan nan nan nan nan nan nan nan nan nan nan nan nan nan nan nan nan nan nan nan nan nan nan nan nan nan nan nan nan nan nan nan nan nan nan nan nan nan nan nan nan nan nan nan nan nan nan nan nan nan nan nan nan nan nan
23 25 28 25 27 28 33 38 43 nan nan nan 32 nan nan nan nan nan nan nan nan nan nan nan nan nan nan nan nan nan nan nan nan nan nan nan nan nan nan nan nan nan nan nan nan nan nan nan nan nan nan nan nan nan nan nan nan nan nan nan nan nan nan nan nan nan nan nan nan nan nan nan nan nan nan nan nan nan nan nan nan nan nan nan nan nan
Wind_Direction
nan nan nan nan nan nan nan nan nan nan nan nan nan nan nan nan nan nan nan 227 nan 230 266 250 235 268 267 236 226 219 217 201 219 226 209 230 230 211 216 231 247 261 269 285 303 297 299 287 257 256 261 259 256 245 252 251 239 228 235 236 237 230 228 220 227 218 213 238 212 250 273 263 237 193 202 166 191 190 211 235 224 183 188 173 156 150
nan nan nan nan nan nan nan nan nan nan nan nan nan nan nan nan nan nan nan 219 nan 208 258 287 264 262 274 264 244 223 209 195 193 224 206 216 235 226 220 238 244 250 236 277 291 287 290 262 283 259 246 264 272 246 255 251 247 232 233 237 240 232 229 222 228 224 211 233 223 250 241 260 251 216 207 188 181 194 232 222 225 189 224 204 177 170
nan nan nan nan nan nan nan nan nan nan nan nan nan nan nan nan nan nan nan nan nan nan 231 265 264 nan 273 254 256 237 224 202 206 206 214 223 222 217 235 229 206 205 246 264 279 285 266 284 292 252 251 255 269 273 274 265 261 242 227 227 229 232 233 222 227 224 210 218 231 228 221 231 234 221 208 203 196 200 233 243 218 216 224 216 212 205
nan nan nan nan nan nan nan nan nan nan nan nan nan nan nan nan nan nan nan nan nan nan nan nan nan nan nan 267 270 279 nan 255 244 215 189 213 255 244 238 232 230 160 255 286 284 292 285 276 279 263 254 258 270 277 277 279 271 238 225 227 229 231 232 227 226 222 219 227 229 210 225 210 215 220 216 213 212 199 226 252 238 221 225 197 228 245
nan nan nan nan nan nan nan nan nan nan nan nan nan nan nan nan nan nan nan nan nan nan nan nan nan nan nan 264 260 nan nan nan 253 nan 235 230 235 248 261 260 242 233 264 271 280 285 286 287 289 277 267 262 269 276 278 277 264 226 238 237 239 235 228 228 233 224 226 230 230 221 222 224 220 211 212 211 220 213 216 221 243 245 220 209 200 241
nan nan nan nan nan nan nan nan nan nan nan nan nan nan nan nan nan nan nan nan nan nan nan nan nan nan nan nan nan nan nan nan nan 238 233 242 243 245 242 254 263 229 252 263 285 282 278 281 281 286 288 285 269 273 272 276 275 250 242 243 248 240 228 228 240 232 233 233 238 242 239 240 235 222 211 214 217 226 230 207 238 254 232 247 220 225
nan nan nan nan nan nan nan nan nan nan nan nan nan nan nan nan nan nan nan nan nan nan nan nan nan nan nan nan 239 nan 245 nan nan 252 234 236 240 246 246 245 247 244 242 254 273 277 278 274 286 292 291 291 283 271 272 274 279 272 260 250 250 242 235 234 236 239 231 241 240 252 250 244 246 229 210 210 207 218 226 214 234 242 234 231 195 252
nan nan nan nan nan nan nan nan nan nan nan nan nan nan nan nan nan nan nan nan nan nan nan nan nan nan 235 226 225 245 241 nan 232 245 239 228 234 242 247 244 245 236 263 244 232 261 272 268 280 287 280 281 282 280 276 276 272 275 265 259 246 228 236 230 236 233 232 241 248 253 247 249 240 240 226 221 208 205 216 217 224 236 231 247 175 225
nan nan nan nan nan nan nan nan nan nan nan nan nan nan nan nan nan nan nan nan nan nan nan nan nan nan nan 231 228 235 236 231 236 224 253 236 207 244 250 265 260 258 254 248 231 220 242 274 269 268 267 273 294 288 280 273 272 272 267 262 242 232 226 227 243 231 233 239 251 254 251 251 239 236 233 230 221 210 212 212 218 225 235 237 223 203
nan nan nan nan nan nan nan nan nan nan nan nan nan nan nan nan nan nan nan nan nan nan nan nan nan nan 235 240 237 240 242 240 236 231 243 260 271 199 243 265 270 262 245 241 236 240 240 249 279 273 272 289 285 293 278 281 279 278 270 265 261 242 220 221 235 227 234 241 249 255 255 263 253 236 232 232 235 224 220 215 220 223 217 241 245 244
nan nan nan nan nan nan nan nan nan nan nan nan nan nan nan nan nan nan nan nan nan nan nan nan nan nan nan 221 252 237 241 230 234 234 238 242 251 276 275 251 250 247 243 225 220 212 244 247 259 290 295 300 287 266 266 288 274 280 275 271 272 253 224 225 226 226 232 231 241 254 266 275 269 251 243 235 237 235 227 224 225 230 220 212 247 256
nan nan nan nan nan nan nan nan nan nan nan nan nan nan nan nan nan nan nan nan nan nan nan nan nan nan nan 244 243 239 nan 230 225 232 231 232 243 246 254 279 276 275 256 233 201 216 239 251 271 271 282 279 258 248 247 234 268 256 259 270 274 262 242 229 224 223 226 225 234 245 269 276 249 251 242 241 242 241 238 237 226 224 231 208 243 249
nan nan nan nan nan nan nan nan nan nan nan nan nan nan nan nan nan nan nan nan nan nan nan nan nan nan nan 239 242 244 242 nan 230 226 nan 236 244 247 253 249 262 270 288 296 278 267 267 254 273 275 260 264 275 279 268 249 231 237 263 273 276 271 255 233 227 222 222 225 230 231 250 249 236 239 239 241 235 236 233 232 230 229 223 223 221 263
nan nan nan nan nan nan nan nan nan nan nan nan nan nan nan nan nan nan nan nan nan nan nan nan nan 214 243 242 240 nan nan nan nan nan nan 237 238 246 244 248 257 262 269 262 268 277 277 278 273 254 265 264 271 276 283 275 258 255 248 263 263 267 258 245 234 224 221 226 228 229 224 227 234 233 237 233 227 227 229 230 223 224 233 232 217 244
nan nan nan nan nan nan nan nan nan nan nan nan nan nan nan nan nan nan nan nan nan nan nan nan nan 244 246 244 nan nan nan nan nan nan 234 235 246 239 245 244 260 267 263 263 261 266 270 268 268 267 253 244 241 257 260 265 258 244 250 253 251 253 256 253 243 229 223 223 229 227 212 219 227 233 232 227 221 214 217 228 230 209 210 226 228 232
nan nan nan nan nan nan nan nan nan nan nan nan nan nan nan nan nan nan nan nan nan nan nan nan 208 nan 237 nan nan 242 nan nan nan nan nan nan 233 238 239 240 243 250 255 263 259 257 255 261 265 258 255 246 231 232 237 256 253 253 246 260 254 241 249 248 245 236 230 223 224 224 220 220 226 233 229 224 217 211 207 214 215 219 197 198 213 236
nan nan nan nan nan nan nan nan nan nan nan nan nan nan nan nan nan nan nan nan nan nan nan nan 228 232 nan 240 244 241 nan nan nan nan nan nan nan 234 234 232 233 245 257 254 254 256 255 242 240 240 228 241 243 234 228 240 244 245 259 263 262 255 250 248 241 238 235 231 224 226 229 224 232 237 236 228 226 215 212 210 210 214 206 192 201 223
nan nan nan nan nan nan nan nan nan nan nan nan nan nan nan nan nan nan nan nan nan nan nan nan nan 239 244 241 242 245 243 nan nan nan nan nan nan nan nan 231 230 234 243 250 256 257 255 250 250 253 231 238 242 240 234 232 238 231 241 255 259 257 252 252 244 238 229 233 228 231 232 234 237 241 241 233 226 216 218 214 210 206 210 204 201 204
nan nan nan nan nan nan nan nan nan nan nan nan nan nan nan nan nan nan nan nan nan nan nan nan nan nan 239 244 249 248 239 nan nan nan nan nan nan nan nan 234 231 232 243 246 251 246 243 256 285 288 278 272 258 232 217 231 231 230 236 240 244 253 238 237 247 241 225 220 231 231 236 247 247 247 250 242 233 227 222 218 220 208 211 211 208 216
nan nan nan nan nan nan nan nan nan nan nan nan nan nan nan nan nan nan nan nan nan nan nan nan nan 243 231 238 243 241 nan nan nan nan nan nan nan nan nan 228 229 228 231 239 251 246 243 248 255 274 276 265 260 254 228 213 222 228 233 239 230 231 234 223 240 244 256 261 246 242 248 254 256 259 260 259 251 240 236 222 222 224 220 215 220 220
nan nan nan nan nan nan nan nan nan nan nan nan nan nan nan nan nan nan nan nan nan nan nan nan nan 243 231 226 234 235 nan nan nan nan nan nan nan nan 227 228 229 228 232 233 238 242 240 240 245 259 264 259 256 255 246 243 235 220 217 229 251 264 275 282 267 248 233 230 233 242 254 261 267 279 275 278 274 263 251 237 222 230 227 231 224 225
nan nan nan nan nan nan nan nan nan nan nan nan nan nan nan nan nan nan nan nan nan nan nan nan nan 244 236 227 nan nan nan nan nan nan nan nan nan nan 228 230 231 231 232 235 237 240 238 238 246 247 252 253 262 264 259 248 241 236 218 216 226 254 254 263 255 227 239 232 229 222 228 244 258 269 275 282 282 280 268 255 239 230 235 239 241 231
nan nan nan nan nan nan nan nan nan nan nan nan nan nan nan nan nan nan nan nan nan nan nan 230 248 242 240 239 nan nan nan nan nan nan nan nan nan nan 231 231 233 235 236 238 nan 241 242 242 240 243 241 242 242 241 243 244 240 251 241 227 253 260 245 258 264 247 245 237 234 228 219 222 242 249 267 278 279 285 280 272 260 244 240 242 245 247
nan nan nan nan nan nan nan nan nan nan nan nan nan nan nan nan nan nan nan nan nan nan nan nan 240 240 nan nan nan nan nan nan nan nan nan nan nan nan 231 230 230 233 236 238 238 241 241 239 238 240 241 239 240 236 230 241 239 232 232 225 219 226 230 237 250 256 252 244 241 248 244 226 228 238 249 267 270 280 281 277 273 262 252 248 244 253
nan nan nan nan nan nan nan nan nan nan nan nan nan nan nan nan nan nan nan nan nan nan nan nan 250 242 nan nan nan nan nan nan nan nan nan nan nan 231 232 231 232 233 234 235 236 235 238 238 237 239 242 243 245 243 243 245 264 259 250 243 245 243 221 220 233 248 258 256 255 258 251 242 234 241 246 246 260 278 278 279 278 273 266 256 252 253
nan nan nan nan nan nan nan nan nan nan nan nan nan nan nan nan nan nan nan nan nan nan nan nan 238 247 252 nan nan nan nan nan nan nan nan nan 229 230 232 233 232 232 232 232 234 235 236 237 237 236 237 240 242 246 251 255 242 243 264 257 238 239 236 232 238 244 242 249 255 248 247 244 247 251 254 254 255 268 275 277 279 281 277 268 263 259
nan nan nan nan nan nan 217 nan nan nan nan nan nan nan nan nan nan nan nan nan nan nan nan 228 244 nan nan nan nan nan nan nan nan nan nan nan 232 230 231 231 231 231 231 230 231 234 236 236 234 232 233 237 239 241 244 244 244 242 242 256 259 237 230 244 250 245 247 251 244 244 241 251 254 251 252 251 246 251 267 274 279 281 284 281 273 269
nan nan nan nan nan nan nan nan nan nan nan nan nan nan nan nan nan nan nan nan 212 nan nan 233 252 254 252 nan nan nan nan nan nan nan nan nan nan nan 231 233 233 233 233 231 229 228 231 234 232 229 230 232 235 238 240 241 242 242 245 248 246 242 229 223 222 229 240 233 236 234 232 240 244 232 241 246 245 252 256 265 269 275 277 282 288 279
nan nan nan nan nan nan nan nan nan nan nan nan nan nan nan nan nan nan nan nan nan nan 228 245 246 250 253 255 nan nan nan nan nan nan nan nan nan nan nan nan 229 229 230 229 230 229 227 229 230 229 228 230 231 234 237 238 239 241 245 247 249 244 237 227 224 218 220 242 242 244 244 239 245 245 237 242 250 252 253 250 254 258 265 274 282 280
nan nan nan nan nan nan nan nan nan nan nan nan nan nan nan nan nan nan nan nan nan nan 243 248 247 249 249 nan nan nan nan nan nan nan nan nan nan nan nan nan nan 227 227 227 225 226 227 227 228 227 228 229 231 232 234 236 237 239 241 244 248 247 243 234 231 225 219 220 235 242 239 240 232 222 227 239 243 237 242 247 245 251 258 260 270 272
nan nan nan nan nan nan nan nan nan nan nan nan nan nan nan nan nan nan nan nan nan 235 248 250 252 250 246 nan nan nan nan nan nan nan nan nan nan nan nan nan nan 225 nan 225 224 224 225 226 226 227 228 229 230 231 234 234 236 237 239 240 243 245 247 244 237 237 233 227 224 232 238 240 237 232 232 228 233 242 234 233 242 240 241 248 251 258
nan nan nan nan nan nan nan nan nan nan nan nan nan nan nan nan nan nan nan nan nan 231 244 250 246 246 nan nan nan nan nan nan nan nan nan nan nan nan nan nan nan nan nan nan 224 223 223 224 225 225 226 227 227 229 230 232 233 234 236 238 239 240 243 245 244 239 241 240 234 230 231 231 234 238 236 240 239 233 228 222 226 234 237 243 251 250
nan nan nan nan nan nan nan nan nan nan nan nan nan nan nan nan nan nan nan nan nan 230 240 247 246 nan nan nan nan nan nan nan nan nan nan nan nan nan nan nan nan nan nan nan nan nan 224 224 225 225 224 225 226 228 229 230 231 233 234 236 237 241 239 240 241 243 241 239 237 233 234 234 234 234 235 235 233 240 247 244 226 216 216 232 240 241
nan nan nan nan nan nan nan nan nan nan nan nan nan nan nan nan nan nan nan nan nan nan nan nan nan nan nan nan nan nan nan nan nan nan nan nan nan nan nan nan nan nan nan nan nan nan nan nan 226 227 226 226 226 226 228 229 229 231 233 235 239 241 241 241 240 242 242 240 235 233 233 236 238 234 237 241 241 238 243 251 253 245 224 208 219 235
nan nan nan nan nan nan nan nan nan nan nan nan nan nan nan nan nan nan nan nan nan nan 236 238 nan nan nan nan nan nan nan nan nan nan nan nan nan nan nan nan nan nan nan nan nan nan nan nan 228 228 227 228 227 228 228 228 228 229 231 233 236 238 240 241 243 242 241 240 239 237 235 235 237 235 236 242 243 242 236 237 245 247 240 230 218 212
nan nan nan nan nan nan nan nan nan nan nan nan nan nan nan nan nan nan nan nan nan 236 239 nan nan nan nan nan nan nan nan nan nan nan nan nan nan nan nan nan nan nan nan nan nan nan nan nan nan nan nan nan 229 230 230 228 227 228 229 230 235 237 237 240 242 243 243 241 239 237 235 234 236 237 235 240 244 243 244 243 239 239 243 237 228 223
nan nan nan nan nan nan nan nan nan nan nan nan nan nan nan nan nan nan nan nan nan nan 239 nan nan nan nan nan nan nan nan nan nan nan nan nan nan nan nan nan nan nan nan nan nan nan nan nan nan nan nan nan nan nan 231 229 229 228 228 229 231 234 236 238 241 245 247 243 240 241 239 233 235 237 238 237 235 237 242 243 240 244 252 254 252 250
nan nan nan nan nan nan nan nan nan nan nan nan nan nan nan nan nan nan nan nan nan nan nan nan nan nan nan nan nan nan nan nan nan nan nan nan nan nan nan nan nan nan nan nan nan nan nan nan nan nan nan nan nan nan nan nan nan nan nan 229 229 229 232 235 238 239 241 243 243 239 241 241 237 239 241 240 239 237 240 245 248 249 255 257 253 251
nan nan nan nan nan nan nan nan nan nan nan nan nan nan nan nan nan nan nan nan nan nan nan nan nan nan nan nan nan nan nan nan nan nan nan nan nan nan nan nan nan nan nan nan nan nan nan nan nan nan nan nan nan nan nan nan nan nan nan nan nan nan 230 232 234 nan nan 240 242 240 241 242 242 240 242 244 243 244 244 246 244 245 247 247 245 243
nan nan nan nan nan nan nan nan nan nan 248 251 nan nan nan nan nan nan nan nan nan nan nan nan nan nan nan nan nan nan nan nan nan nan nan nan nan nan nan nan nan nan nan nan nan nan nan nan nan nan nan nan nan nan nan nan nan nan nan nan nan nan nan nan nan nan nan nan nan nan 243 244 240 242 244 244 242 244 248 245 242 242 244 243 236 233
nan nan nan nan nan nan nan nan nan 244 246 nan nan nan nan nan nan nan nan 244 nan nan nan nan nan nan nan nan nan nan nan nan nan nan nan nan nan nan nan nan nan nan nan nan nan nan nan nan nan nan nan nan nan nan nan nan nan nan nan nan nan nan nan nan nan nan nan nan nan nan nan nan nan nan 243 246 247 245 243 245 244 243 241 239 238 236
nan nan nan nan nan nan nan nan nan nan 247 nan nan nan nan nan nan nan nan nan nan nan nan nan nan nan nan nan nan nan nan nan nan nan nan nan nan nan nan nan nan nan nan nan nan nan nan nan nan nan nan nan nan nan nan nan nan nan nan nan nan nan nan nan nan nan nan nan nan nan nan nan nan nan nan nan nan 251 252 249 246 244 240 238 238 237
nan nan nan nan nan nan nan nan nan nan nan nan nan nan nan nan 240 nan nan nan nan nan nan nan nan nan nan nan nan nan nan nan nan nan nan nan nan nan nan nan nan nan nan nan nan nan nan nan nan nan nan nan nan nan nan nan nan nan nan nan nan nan nan nan nan nan nan nan nan nan nan nan nan nan nan nan nan nan 253 253 251 251 251 248 247 244
nan nan nan nan nan nan nan nan nan nan nan nan nan nan nan nan nan nan nan nan nan nan nan nan nan nan nan nan nan nan nan nan nan nan nan nan nan nan nan nan nan nan nan nan nan nan nan nan nan nan nan nan nan nan nan nan nan nan nan nan nan nan nan nan nan nan nan nan nan nan nan nan nan nan nan nan nan nan nan 251 251 253 253 251 250 247
nan nan nan 227 nan nan nan nan nan nan nan nan nan nan nan nan nan nan nan nan nan nan nan nan nan nan nan nan nan nan nan nan nan nan nan nan nan nan nan nan nan nan nan nan nan nan nan nan nan nan nan nan nan nan nan nan nan nan nan nan nan nan nan nan nan nan nan nan nan nan nan nan nan nan nan nan nan nan nan nan nan 250 252 254 251 251
nan nan 234 nan nan nan nan nan 236 nan nan nan nan nan nan nan nan nan nan nan nan nan nan nan nan nan nan nan nan nan nan nan nan nan nan nan nan nan nan nan nan nan nan nan nan nan nan nan nan nan nan nan nan nan nan nan nan nan nan nan nan nan nan nan nan nan nan nan nan nan nan nan nan nan nan nan nan nan nan nan nan 251 252 251 251 252
nan nan nan nan nan nan nan nan nan nan nan nan nan nan nan nan nan nan nan nan nan nan nan nan nan nan nan nan nan nan nan nan nan nan nan nan nan nan nan nan nan nan nan nan nan nan nan nan nan nan nan nan nan nan nan nan nan nan nan nan nan nan nan nan nan nan nan nan nan nan nan nan nan nan nan nan nan nan nan nan nan 252 252 252 250 250
255 nan nan nan nan nan nan nan nan nan nan nan nan nan nan nan nan nan nan nan nan nan nan nan nan nan nan nan nan nan nan nan nan nan nan nan nan nan nan nan nan nan nan nan nan nan nan nan nan nan nan nan nan nan nan nan nan nan nan nan nan nan nan nan nan nan nan nan nan nan nan nan nan nan nan nan nan nan nan nan nan nan 250 250 250 250
247 nan 248 248 nan nan nan nan nan nan nan nan nan nan nan nan nan nan nan nan nan nan nan nan nan nan nan nan nan nan nan nan nan nan nan nan nan nan nan nan nan nan nan nan nan nan nan nan nan nan nan nan nan nan nan nan nan nan nan nan nan nan nan nan nan nan nan nan nan nan nan nan nan nan nan nan nan nan nan nan nan nan nan nan nan 243
266 260 nan nan 247 243 240 240 246 nan 243 nan nan nan nan nan nan nan nan nan nan nan nan nan nan nan nan nan nan nan nan nan nan nan nan nan nan nan nan nan nan nan nan nan nan nan nan nan nan nan nan nan nan nan nan nan nan nan nan nan nan nan nan nan nan nan nan nan nan nan nan nan nan nan nan nan nan nan nan nan nan nan nan nan nan nan
262 242 240 247 244 242 239 232 230 nan nan nan 232 nan nan nan nan nan nan nan nan nan nan nan nan nan nan nan nan nan nan nan nan nan nan nan nan nan nan nan nan nan nan nan nan nan nan nan nan nan nan nan nan nan nan nan nan nan nan nan nan nan nan nan nan nan nan nan nan nan nan nan nan nan nan nan nan nan nan nan nan nan nan nan nan nan